Location: Lecco
(45.8566°N, 9.3977°E)
Time: 03:43:26
(UTC+02:00)

Transit 4A - Pass Details

Date: 20 August 2020
Orbit: 863 x 982 km, 66.8° (Epoch: 23 September)

Event Time Altitude Azimuth Distance (km) Brightness Sun altitude
Rises 12:36:42 0° 309° (NW) 3,601 10.7 54.8°
Reaches altitude 10° 12:42:24 10° 351° (N) 2,694 10.1 55.1°
Maximum altitude 12:43:14 10° 358° (N) 2,680 10.1 55.2°
Drops below altitude 10° 12:44:05 10° 6° (N) 2,703 10.1 55.2°
Sets 12:49:54 0° 47° (NE) 3,677 10.9 55.5°
